Tracking 35331 objects as of 14-Sep-2026
HD Live streaming from Space Station
objects crossing your sky now

ARIANE 5 R/B

Track ARIANE 5 R/B now!


NORAD ID: 26110
Int'l Code: 2000-016D
Launch date: March 21, 2000
Source: France (FR)
Launch site: FRENCH GUIANA (FRGUI)

Note: This is a ROCKET BODY
Your satellite tracking list
Your tracking list is empty




NASA's NSSDC Master Catalog

Two Line Element Set (TLE):
1 26110U 00016D   26257.15127281 -.00000086  00000-0  21893-2 0  9996
2 26110   7.1318  11.3595 7091481  13.3824 358.2271  2.27195897219861
Source of the keplerian elements: AFSPC